Weather History for KHSI - February, 2014

Change the Weather History Date:

Tuesday, February 18, 2014

  Actual Average Record
Temperature  
Mean Temperature 48 °F 31 °F  
Max Temperature 66 °F 41 °F 74 °F (1930)
Min Temperature 29 °F 20 °F -10 °F (1936)
Degree Days  
Heating Degree Days 17 34  
Month to date heating degree days 783 654  
Since 1 July heating degree days 4505 4303  
Cooling Degree Days 0 0  
Month to date cooling degree days 0 0  
Year to date cooling degree days 0 0  
Moisture  
Dew Point 20 °F    
Average Humidity 43    
Maximum Humidity 69    
Minimum Humidity 16    
Precipitation  
Precipitation 0.00 in 0.02 in 0.86 in (1984)
Month to date precipitation 0.19 0.29  
Year to date precipitation 0.56 0.70  
Snow  
Snow 0.00 in 0.20 in 11.00 in (1984)
Month to date snowfall 5.3 4.5  
Since 1 July snowfall 16.1 20.4  
Snow Depth 0.00 in    
Sea Level Pressure  
Sea Level Pressure 29.80 in    
Wind  
Wind Speed 12 mph (West)    
Max Wind Speed 32 mph    
Max Gust Speed 39 mph    
Visibility 10 miles    
Events      
T = Trace of Precipitation, MM = Missing Value Source: NWS Daily Summary

Daily Weather History Graph

Daily Weather History Graph

Search for Another Location

Airport or City:

Trip Planner

Search our weather history database for the weather conditions in past years. The results will help you decide how hot, cold, wet, or windy it might be!

Date:

Astronomy

Feb. 18, 2014 Rise Set
Actual Time 7:23 AM CST 6:12 PM CST
Civil Twilight 6:55 AM CST 6:40 PM CST
Nautical Twilight 6:23 AM CST 7:12 PM CST
Astronomical Twilight 5:52 AM CST 7:43 PM CST
Moon 10:08 PM CST (2/18) 8:55 AM CST (2/18)
Length of Visible Light 11h 44m
Length of Day
10h 49m
Waning Gibbous, 87% of the Moon is Illuminated
Feb 18
Waning Gibbous
Feb 22
Last Quarter
Mar 1
New
Mar 8
First Quarter
Mar 16
Full

Hourly Weather History & Observations

Time (CST) Temp. Windchill Dew Point Humidity Pressure Visibility Wind Dir Wind Speed Gust Speed Precip Events Conditions
12:53 AM 45.0 °F 38.5 °F 19.0 °F 36% 29.77 in 10.0 mi SSW 13.8 mph 21.9 mph N/A   Clear
1:53 AM 45.0 °F 38.2 °F 19.0 °F 36% 29.74 in 10.0 mi SSW 15.0 mph 23.0 mph N/A   Clear
2:53 AM 39.9 °F 33.9 °F 19.9 °F 45% 29.74 in 10.0 mi SW 9.2 mph - N/A   Clear
3:53 AM 41.0 °F 33.9 °F 19.0 °F 41% 29.70 in 10.0 mi SSW 12.7 mph - N/A   Clear
4:53 AM 39.0 °F 32.8 °F 19.0 °F 45% 29.69 in 10.0 mi SW 9.2 mph - N/A   Clear
5:53 AM 39.0 °F 32.8 °F 18.0 °F 43% 29.68 in 10.0 mi SW 9.2 mph - N/A   Clear
6:53 AM 37.9 °F 31.5 °F 18.0 °F 45% 29.69 in 10.0 mi SSW 9.2 mph - N/A   Clear
7:53 AM 37.9 °F 33.5 °F 18.0 °F 45% 29.68 in 10.0 mi SSW 5.8 mph - N/A   Clear
8:53 AM 41.0 °F 35.2 °F 19.9 °F 43% 29.72 in 10.0 mi SW 9.2 mph - N/A   Clear
9:53 AM 48.0 °F - 21.0 °F 34% 29.70 in 10.0 mi SW 11.5 mph - N/A   Clear
10:53 AM 57.9 °F - 21.0 °F 24% 29.70 in 10.0 mi WSW 10.4 mph - N/A   Clear
11:53 AM 63.0 °F - 19.0 °F 18% 29.70 in 10.0 mi WSW 15.0 mph - N/A   Clear
12:53 PM 64.0 °F - 21.0 °F 19% 29.70 in 10.0 mi West 18.4 mph 26.5 mph N/A   Clear
1:53 PM 66.0 °F - 19.0 °F 17% 29.70 in 10.0 mi NW 25.3 mph 36.8 mph N/A   Clear
2:53 PM 64.0 °F - 19.0 °F 18% 29.75 in 10.0 mi NW 21.9 mph 36.8 mph N/A   Clear
3:53 PM 61.0 °F - 21.0 °F 21% 29.79 in 10.0 mi NW 27.6 mph 38.0 mph N/A   Clear
4:53 PM 57.9 °F - 24.1 °F 27% 29.84 in 10.0 mi NNW 18.4 mph 31.1 mph N/A   Clear
5:53 PM 52.0 °F - 25.0 °F 35% 29.88 in 10.0 mi NW 9.2 mph - N/A   Clear
6:53 PM 41.0 °F 36.4 °F 24.1 °F 51% 29.93 in 10.0 mi NW 6.9 mph - N/A   Clear
7:53 PM 39.0 °F 33.4 °F 23.0 °F 53% 29.97 in 10.0 mi NW 8.1 mph - N/A   Clear
8:53 PM 37.9 °F 32.1 °F 21.0 °F 51% 29.99 in 10.0 mi NNW 8.1 mph - N/A   Clear
9:53 PM 30.0 °F 22.4 °F 19.0 °F 64% 30.02 in 10.0 mi NW 8.1 mph - N/A   Clear
10:53 PM 28.9 °F 21.9 °F 19.9 °F 69% 30.01 in 10.0 mi WNW 6.9 mph - N/A   Clear
11:53 PM 30.0 °F 24.1 °F 19.0 °F 64% 30.01 in 10.0 mi SW 5.8 mph - N/A   Clear